WX8ASH-13 Weather Reports


Display with metric or nautical units.
time (UTC)temp
F
wind
direction
speed
MPH
gust
MPH
rain 1hr
in
rain 24hr
in
rain mn
in
humidity
%
barometer
mb
20260504014030 51 224 0.0 6.0 0.00 0.00 0.00 69 1014.0
20260504013530 51 226 0.0 7.0 0.00 0.00 0.00 69 1014.0
20260504013029 51 242 0.0 8.0 0.00 0.00 0.00 69 1014.1
20260504012529 51 314 0.0 8.0 0.00 0.00 0.00 69 1014.1
20260504012030 51 226 4.0 11.0 0.00 0.00 0.00 69 1014.1
20260504011529 51 273 1.0 11.0 0.00 0.00 0.00 68 1014.2
20260504011029 52 288 2.0 11.0 0.00 0.00 0.00 68 1014.3
20260504010529 52 259 2.0 7.0 0.00 0.00 0.00 67 1014.3
20260504010029 52 264 3.0 8.0 0.00 0.00 0.00 68 1014.3
20260504005529 52 219 0.0 10.0 0.00 0.00 0.00 67 1014.2
20260504005028 52 307 4.0 11.0 0.00 0.00 0.00 67 1014.2
20260504004529 53 262 0.0 11.0 0.00 0.00 0.00 66 1014.1
20260504004028 53 197 2.0 12.0 0.00 0.00 0.00 65 1014.1
20260504003528 53 270 2.0 12.0 0.00 0.00 0.00 64 1014.0
20260504003028 54 302 5.0 14.0 0.00 0.00 0.00 62 1014.0
20260504002527 55 290 4.0 14.0 0.00 0.00 0.00 59 1013.9
20260504002027 56 304 6.0 14.0 0.00 0.00 0.00 55 1013.7
20260504001527 56 263 0.0 14.0 0.00 0.00 0.00 50 1013.4
20260504001028 56 240 1.0 14.0 0.00 0.00 0.00 49 1013.4
20260504000527 57 277 3.0 10.0 0.00 0.00 0.00 49 1013.4
20260504000027 57 276 5.0 11.0 0.00 0.00 0.00 48 1013.3
20260503235527 57 322 2.0 11.0 0.00 0.00 0.00 51 1013.4
20260503235027 57 294 0.0 11.0 0.00 0.00 0.00 50 1013.4
20260503234526 57 274 6.0 11.0 0.00 0.00 0.00 49 1013.5
20260503234026 57 231 0.0 14.0 0.00 0.00 0.00 50 1013.5
20260503233526 57 274 3.0 14.0 0.00 0.00 0.00 49 1013.5
20260503233026 57 307 0.0 14.0 0.00 0.00 0.00 49 1013.6
20260503232525 57 248 0.0 8.0 0.00 0.00 0.00 50 1013.6
20260503232026 57 291 3.0 12.0 0.00 0.00 0.00 49 1013.5
20260503231525 58 221 0.0 12.0 0.00 0.00 0.00 49 1013.6
20260503231026 58 294 5.0 12.0 0.00 0.00 0.00 48 1013.6
20260503230525 58 304 0.0 13.0 0.00 0.00 0.00 49 1013.7
20260503230025 58 252 3.0 13.0 0.00 0.00 0.00 48 1013.9
20260503225524 58 305 3.0 13.0 0.00 0.00 0.00 47 1013.7
20260503225025 58 257 1.0 10.0 0.00 0.00 0.00 48 1013.7
20260503224524 58 269 3.0 10.0 0.00 0.00 0.00 48 1013.7
20260503224025 58 252 4.0 10.0 0.00 0.00 0.00 48 1013.9
20260503223524 58 232 3.0 12.0 0.00 0.00 0.00 48 1013.9
20260503223024 58 291 0.0 12.0 0.00 0.00 0.00 48 1014.0
20260503222524 58 270 2.0 12.0 0.00 0.00 0.00 47 1014.1
20260503222024 58 266 3.0 11.0 0.00 0.00 0.00 48 1014.1
20260503221523 58 248 2.0 11.0 0.00 0.00 0.00 48 1014.2
20260503221024 58 245 0.0 11.0 0.00 0.00 0.00 48 1014.2
20260503220523 58 215 0.0 10.0 0.00 0.00 0.00 48 1014.2
20260503220024 58 285 2.0 13.0 0.00 0.00 0.00 47 1014.1
20260503215523 58 294 4.0 13.0 0.00 0.00 0.00 48 1014.2
20260503215023 58 212 0.0 15.0 0.00 0.00 0.00 48 1014.2
20260503214523 58 293 0.0 15.0 0.00 0.00 0.00 48 1014.2
20260503214023 58 295 2.0 15.0 0.00 0.00 0.00 47 1014.2
20260503213522 58 271 1.0 14.0 0.00 0.00 0.00 48 1014.3
20260503213022 58 243 4.0 18.0 0.00 0.00 0.00 48 1014.3
20260503212522 59 305 10.0 18.0 0.00 0.00 0.00 47 1014.3
20260503212023 59 305 1.0 18.0 0.00 0.00 0.00 48 1014.2
20260503211522 59 274 1.0 14.0 0.00 0.00 0.00 48 1014.3
20260503211021 59 281 3.0 11.0 0.00 0.00 0.00 48 1014.3
20260503210522 59 283 2.0 14.0 0.00 0.00 0.00 46 1014.4
20260503210022 59 260 2.0 14.0 0.00 0.00 0.00 46 1014.4
20260503205521 59 287 3.0 14.0 0.00 0.00 0.00 46 1014.4
20260503205021 59 277 4.0 13.0 0.00 0.00 0.00 47 1014.4
20260503204521 59 243 0.0 13.0 0.00 0.00 0.00 49 1014.4
20260503204021 59 236 3.0 13.0 0.00 0.00 0.00 47 1014.4
20260503203520 59 276 6.0 12.0 0.00 0.00 0.00 48 1014.5
20260503203021 59 287 2.0 13.0 0.00 0.00 0.00 46 1014.5
20260503202521 59 283 0.0 14.0 0.00 0.00 0.00 50 1014.7
20260503202021 58 304 0.0 14.0 0.00 0.00 0.00 49 1014.7
20260503201520 59 311 13.0 14.0 0.00 0.00 0.00 46 1014.7
20260503201020 59 307 4.0 12.0 0.00 0.00 0.00 48 1014.8
20260503200520 59 309 4.0 17.0 0.00 0.00 0.00 48 1014.9
20260503200020 59 276 5.0 17.0 0.00 0.00 0.00 47 1015.0
20260503195519 59 284 6.0 17.0 0.00 0.00 0.00 47 1015.1
20260503195019 59 176 2.0 15.0 0.00 0.00 0.00 48 1015.1
20260503194519 59 257 6.0 13.0 0.00 0.00 0.00 47 1015.1
20260503194019 59 262 3.0 18.0 0.00 0.00 0.00 47 1015.2
20260503193519 60 295 3.0 18.0 0.00 0.00 0.00 45 1015.3
20260503193019 61 280 7.0 18.0 0.00 0.00 0.00 46 1015.3
20260503192518 61 221 2.0 15.0 0.00 0.00 0.00 45 1015.4
20260503192018 30 281 0.0 15.0 0.00 0.00 0.00 49 1015.4
20260503190043 61 274 4.0 16.0 0.00 0.00 0.00 47 1015.8
20260503185542 60 238 0.0 13.0 0.00 0.00 0.00 45 1016.0
20260503185042 60 323 2.0 13.0 0.00 0.00 0.00 45 1016.0
20260503184542 60 283 4.0 13.0 0.00 0.00 0.00 45 1016.0
20260503184042 59 298 0.0 10.0 0.00 0.00 0.00 50 1016.1
20260503183542 59 257 2.0 10.0 0.00 0.00 0.00 48 1016.1
20260503183042 59 308 10.0 13.0 0.00 0.00 0.00 48 1016.2
20260503182542 59 293 5.0 13.0 0.00 0.00 0.00 47 1016.2
20260503182042 59 278 5.0 13.0 0.00 0.00 0.00 47 1016.3
20260503181541 59 238 6.0 10.0 0.00 0.00 0.00 47 1016.3
20260503181041 59 309 5.0 10.0 0.00 0.00 0.00 45 1016.4
20260503180541 59 249 5.0 10.0 0.00 0.00 0.00 47 1016.4
20260503180041 59 291 0.0 10.0 0.00 0.00 0.00 46 1016.5
20260503175541 59 290 8.0 13.0 0.00 0.00 0.00 47 1016.5
20260503175041 59 321 4.0 13.0 0.00 0.00 0.00 51 1016.6
20260503174540 59 290 3.0 13.0 0.00 0.00 0.00 46 1016.7
20260503174040 59 284 3.0 10.0 0.00 0.00 0.00 50 1016.6
20260503173541 58 293 1.0 11.0 0.00 0.00 0.00 48 1016.6
20260503173040 58 280 2.0 13.0 0.00 0.00 0.00 51 1016.8
20260503172540 58 323 6.0 18.0 0.00 0.00 0.00 52 1017.0
20260503172040 58 276 5.0 18.0 0.00 0.00 0.00 49 1017.0
20260503171539 58 311 6.0 18.0 0.00 0.00 0.00 51 1017.1
20260503171039 58 298 2.0 11.0 0.00 0.00 0.00 52 1017.1
20260503170540 58 311 8.0 11.0 0.00 0.00 0.00 52 1017.1
20260503150535 52 311 3.0 12.0 0.00 0.00 0.00 57 1017.9
20260503131036 45 218 0.0 5.0 0.00 0.00 0.00 73 1018.5
20260503130537 44 226 0.0 4.0 0.00 0.00 0.00 73 1018.5
20260503110533 35 285 0.0 0.0 0.00 0.00 0.00 93 1017.9
20260503081527 36 285 0.0 0.0 0.00 0.00 0.00 92 1017.7
20260503081027 36 285 0.0 0.0 0.00 0.00 0.00 92 1017.7
20260503080527 36 285 0.0 0.0 0.00 0.00 0.00 92 1017.7
20260503072526 36 285 0.0 0.0 0.00 0.00 0.00 93 1017.7
20260503072025 36 285 0.0 0.0 0.00 0.00 0.00 93 1017.7
20260503071526 36 285 0.0 0.0 0.00 0.00 0.00 93 1017.7
20260503071026 36 285 0.0 0.0 0.00 0.00 0.00 93 1017.6
20260503070525 36 285 0.0 0.0 0.00 0.00 0.00 93 1017.6
20260503055023 37 285 0.0 0.0 0.00 0.00 0.00 93 1017.8
20260503054523 37 285 0.0 0.0 0.00 0.00 0.00 93 1017.9
20260503054023 38 285 0.0 0.0 0.00 0.00 0.00 93 1017.9
20260503053523 38 285 0.0 0.0 0.00 0.00 0.00 93 1017.9
20260503053023 38 285 0.0 0.0 0.00 0.00 0.00 93 1017.9
20260503052522 38 285 0.0 0.0 0.00 0.00 0.00 92 1017.9
20260503052023 38 285 0.0 0.0 0.00 0.00 0.00 92 1017.9
20260503051522 39 285 0.0 0.0 0.00 0.00 0.00 92 1017.9
20260503051021 39 285 0.0 0.0 0.00 0.00 0.00 92 1017.9
20260503050522 39 285 0.0 0.0 0.00 0.00 0.00 92 1017.9
20260503050022 39 285 0.0 0.0 0.00 0.00 0.00 92 1017.9
20260503045523 39 285 0.0 0.0 0.00 0.00 0.00 92 1017.9
20260503045022 39 285 0.0 0.0 0.00 0.00 0.00 92 1017.9
20260503044523 39 285 0.0 0.0 0.00 0.00 0.00 92 1017.9
20260503044021 39 285 0.0 0.0 0.00 0.00 0.00 92 1017.8
20260503043521 39 285 0.0 0.0 0.00 0.00 0.00 92 1017.8
20260503043020 40 285 0.0 0.0 0.00 0.00 0.00 92 1017.8
20260503042521 40 285 0.0 0.0 0.00 0.00 0.00 92 1017.9
20260503042020 40 285 0.0 0.0 0.00 0.00 0.00 91 1017.9
20260503041521 40 285 0.0 0.0 0.00 0.01 0.00 91 1017.9
20260503041021 40 285 0.0 0.0 0.00 0.02 0.00 91 1018.1
20260503040521 40 285 0.0 0.0 0.00 0.02 0.00 92 1018.1
20260503040020 40 285 0.0 0.0 0.00 0.03 0.00 92 1018.1
20260503035519 30 285 0.0 0.0 0.00 0.03 0.03 92 1018.2